EHI
0 0 0 0 0 0 0 0 0 0 0 0 0 0 0 0 0 0 0 0 0 0 0 0 0 0 0 0 0 0 0 0 0 0 0 0 0 0 0 0 0 1 2 2 1 0 0 0 0
0 0 0 0 0 0 0 0 0 0 0 0 0 0 0 0 0 0 0 0 0 0 0 0 0 0 0 0 0 0 0 0 0 0 0 0 0 0 0 0 0 0 1 1 0 0 0 0 0
0 0 0 0 0 0 0 0 0 0 0 0 0 0 0 0 0 0 0 0 0 0 0 1 1 1 0 0 0 0 0 0 0 0 0 0 0 0 0 0 0 0 0 0 0 0 0 0 0
0 0 0 0 0 0 0 1 0 0 0 0 0 0 0 0 0 1 1 1 1 0 0 1 2 1 0 0 0 0 0 0 0 0 0 0 0 0 0 0 1 0 0 0 0 0 0 0 0
0 0 0 0 0 0 0 1 1 1 1 0 0 0 0 0 1 2 2 2 1 0 0 1 2 1 0 0 0 0 0 0 0 0 0 0 0 0 0 0 0 0 0 0 0 0 0 0 0
0 0 0 0 0 0 0 1 2 2 1 0 0 0 0 2 3 3 2 1 0 0 0 1 2 1 0 0 0 0 0 0 0 0 0 0 1 1 1 1 1 1 1 1 1 0 1 2 2
0 0 0 0 0 0 0 1 1 1 1 0 0 0 1 4 5 3 1 0 0 0 0 0 0 0 0 0 0 0 0 0 0 0 0 1 2 2 2 3 3 3 3 3 3 3 5 7 7
0 0 0 0 0 0 0 0 1 2 2 1 0 0 2 5 6 3 1 0 0 0 0 0 0 0 0 0 0 0 0 0 0 0 0 1 2 2 2 3 5 6 6 6 6 8 11 12 11
0 0 0 0 0 1 1 1 1 2 2 1 1 2 5 7 8 7 4 1 0 0 0 0 0 0 0 0 0 0 0 0 0 0 0 1 1 1 1 2 4 5 6 6 8 12 12 11 9
0 0 0 1 1 2 3 2 1 1 1 1 2 4 6 8 11 12 7 2 0 0 0 0 0 0 0 0 0 0 0 0 0 0 0 0 0 0 0 0 2 3 4 5 7 10 9 7 5
0 0 1 2 3 4 5 5 3 1 0 1 2 4 5 6 10 11 7 2 0 0 0 1 1 1 0 0 1 1 1 0 0 0 0 0 0 0 0 0 1 2 3 4 5 5 5 4 4
0 0 1 3 4 6 7 7 5 2 2 4 4 4 5 5 7 7 5 3 1 1 1 2 2 2 1 1 1 2 1 1 1 1 0 0 0 0 0 1 2 3 3 3 3 3 3 3 3
0 0 1 4 6 7 7 6 5 4 6 8 6 5 5 6 6 5 4 3 3 2 2 3 3 3 3 1 1 1 1 1 2 2 1 1 0 0 0 1 2 3 3 3 3 3 3 3 3
0 1 2 5 6 7 6 5 4 5 9 11 9 6 5 6 7 6 5 4 4 4 4 4 4 4 3 1 1 1 1 2 3 4 2 1 0 0 1 2 3 3 3 3 3 3 3 2 2
0 1 2 4 5 5 5 4 2 5 8 11 10 7 4 5 7 9 8 7 7 8 8 6 5 4 3 2 1 2 2 3 3 3 2 1 0 1 2 3 3 3 3 2 2 2 1 1 2
0 0 1 3 4 3 3 3 2 5 7 9 9 7 5 5 7 10 12 13 14 14 11 8 7 6 5 4 3 3 4 4 3 2 1 1 1 2 3 3 3 3 3 2 2 2 1 2 2
0 1 2 3 2 2 3 3 3 6 8 8 7 7 5 5 6 9 14 18 20 19 15 11 9 8 8 6 4 4 5 5 4 3 3 4 4 3 3 3 3 4 3 3 3 3 3 2 2
0 1 3 3 2 3 4 4 4 6 8 8 8 7 6 6 6 9 15 21 25 24 20 15 12 10 9 7 5 4 4 4 5 5 6 7 6 4 4 4 4 4 3 3 3 3 3 2 1
1 2 3 4 3 3 3 4 3 4 7 9 8 7 7 6 7 11 17 23 29 30 25 22 18 14 12 9 7 5 4 5 6 7 8 8 7 5 4 4 4 4 3 2 3 3 2 1 0
2 2 2 3 3 2 1 2 3 3 6 9 8 6 6 7 10 16 22 27 33 35 32 29 27 23 18 13 9 7 6 6 6 7 8 9 8 7 6 5 4 4 3 2 2 3 1 0 0
2 1 1 2 2 0 0 2 4 5 6 7 7 7 7 9 15 22 28 31 35 38 37 36 35 31 25 19 15 12 10 7 7 8 8 8 8 9 8 7 6 6 3 2 2 2 1 0 0
1 0 1 2 1 0 0 1 4 5 5 6 8 9 10 11 17 25 31 34 36 38 40 41 40 35 30 26 23 20 15 10 9 9 9 8 8 10 11 10 9 8 5 3 3 2 0 0 0
0 0 1 1 1 0 0 0 2 3 4 6 9 12 11 11 16 24 31 36 38 40 44 46 45 38 32 30 29 27 20 14 12 11 9 8 8 10 12 12 10 9 7 6 5 2 1 0 0
0 0 0 0 0 0 0 0 0 2 5 8 12 15 15 13 17 24 32 38 43 46 49 51 50 44 37 34 33 31 27 21 16 13 10 8 9 10 13 13 11 10 9 8 5 2 1 0 0
0 0 0 0 0 0 0 0 1 4 8 12 16 20 20 18 20 27 35 42 48 51 53 54 54 50 45 42 38 33 31 27 22 17 14 11 10 10 13 14 13 11 10 9 6 2 0 0 0
0 0 0 0 0 0 0 0 1 5 9 14 18 22 24 21 21 29 38 44 48 52 55 56 56 53 51 48 42 35 32 30 26 21 18 16 13 11 12 14 14 11 9 8 6 3 1 0 0
0 0 0 0 0 0 0 0 1 4 8 12 16 20 22 19 18 25 35 41 47 51 54 55 57 55 53 51 45 37 33 32 29 25 21 19 17 14 13 13 12 10 8 7 6 4 2 1 1
0 0 0 0 0 0 0 0 1 4 9 12 14 16 16 15 15 20 29 38 44 48 48 51 56 57 55 52 47 41 38 37 33 27 22 20 20 18 15 13 11 10 8 7 6 5 3 2 2
0 0 0 0 0 0 0 1 2 5 9 13 14 14 13 14 16 20 27 34 39 41 45 49 55 57 56 53 50 48 47 43 37 29 23 20 20 19 16 13 12 12 11 9 7 6 4 2 1
0 0 0 0 0 0 1 2 3 5 8 12 14 13 13 15 18 21 26 32 35 37 44 51 54 54 55 54 52 52 52 46 39 31 23 20 20 18 16 14 12 13 12 10 8 6 4 2 1
Wind_Speed
2 3 3 2 5 6 7 6 7 8 8 10 12 12 10 9 7 9 4 10 11 7 6 10 13 14 14 14 15 15 15 15 15 14 14 15 15 15 15 15 14 14 14 14 13 13 13 12 12
2 2 2 4 6 6 5 6 11 12 12 11 13 13 11 10 9 10 6 10 11 8 6 9 13 13 14 14 14 14 14 14 13 13 13 13 14 14 14 14 14 13 13 13 12 12 11 11 11
2 2 3 4 4 6 6 8 11 12 10 9 8 8 7 7 8 7 8 12 10 8 6 8 14 13 13 13 13 13 13 13 13 13 12 13 13 13 13 13 13 13 12 12 11 11 10 10 9
2 3 4 6 7 6 9 9 12 13 10 9 9 9 6 6 6 10 14 13 11 7 6 9 13 13 13 13 13 13 13 13 13 12 12 12 12 12 12 12 12 12 11 11 10 9 9 8 8
3 4 6 6 7 7 9 11 11 11 7 10 11 10 7 6 14 16 14 13 11 7 5 7 13 13 13 13 13 12 12 12 12 12 11 11 10 11 11 11 11 11 10 10 9 8 7 7 7
3 4 6 5 7 8 9 11 15 17 15 13 12 9 5 8 13 13 13 11 10 9 6 6 13 14 13 13 12 12 11 11 11 11 10 10 10 10 10 10 10 10 9 8 8 7 6 6 5
4 4 5 6 8 8 9 9 12 13 12 7 8 8 5 7 10 12 12 10 9 8 6 4 6 9 12 12 12 11 10 10 10 10 10 9 9 9 9 9 9 9 8 7 7 6 5 5 5
4 5 5 5 8 7 8 9 10 12 9 9 6 8 7 7 11 12 11 9 8 7 5 4 5 5 5 6 10 10 10 9 9 9 9 8 8 9 9 8 8 7 7 6 5 5 4 3 3
4 6 4 5 8 7 10 12 9 9 11 6 5 8 11 12 13 12 9 7 6 6 4 4 4 4 4 4 7 7 8 8 8 7 8 6 3 3 5 7 7 7 6 5 5 4 3 2 2
5 5 5 5 9 10 12 14 10 8 11 10 11 12 13 12 12 11 10 8 7 6 5 4 5 5 4 4 4 2 3 3 3 2 3 2 2 2 4 6 7 7 6 4 4 3 3 2 1
5 6 7 8 11 13 12 10 8 11 9 13 16 15 12 11 10 9 8 7 7 7 6 5 5 5 4 3 3 1 1 2 2 2 3 2 2 2 2 1 2 2 2 1 1 1 0 1 1
5 6 9 9 10 12 10 8 8 8 11 13 14 14 11 11 9 9 8 7 6 6 5 5 5 5 4 4 3 3 2 2 2 2 3 3 2 2 2 2 2 1 1 1 1 0 0 1 1
5 6 8 10 11 11 13 12 11 11 14 15 14 13 11 10 8 7 8 7 6 6 5 4 4 5 4 4 3 3 3 3 3 2 2 3 3 2 2 2 1 1 1 2 1 1 1 1 1
4 7 9 11 12 11 16 11 9 11 14 14 13 10 10 9 9 8 8 7 6 6 5 4 4 4 4 3 3 3 3 3 2 2 2 3 3 3 2 2 2 1 1 2 2 2 2 1 1
6 8 7 6 9 8 13 8 8 13 14 13 12 10 9 8 8 10 9 8 8 7 6 5 4 4 4 3 3 2 2 3 2 2 2 3 3 3 3 2 2 1 1 1 1 1 1 1 1
5 5 4 2 6 6 10 7 8 12 13 12 11 11 9 8 9 9 9 8 7 7 6 5 5 4 4 3 3 2 2 2 2 2 2 2 3 3 3 2 2 1 1 1 1 1 1 0 0
4 3 4 3 4 5 6 6 9 11 12 11 11 10 9 8 7 7 9 9 8 8 7 5 4 4 4 3 2 2 2 2 1 2 2 2 3 3 3 2 2 1 1 1 1 1 1 1 1
3 3 3 4 5 6 6 6 10 10 12 12 10 10 9 10 9 9 9 9 8 7 7 6 5 5 4 2 2 1 1 1 1 1 2 2 2 2 2 2 2 1 1 1 1 1 1 1 1
4 3 4 4 5 6 7 8 11 12 11 11 10 9 10 10 9 9 9 9 8 7 6 6 5 4 4 2 2 1 1 0 0 0 1 2 2 2 2 1 1 1 1 2 1 1 1 1 1
2 3 2 2 5 6 6 7 9 11 14 14 13 12 12 9 7 9 9 9 9 8 7 7 6 5 5 3 2 2 2 1 1 0 0 1 1 1 2 2 2 2 1 1 1 1 1 0 1
3 5 5 4 2 3 4 0 4 7 7 9 11 11 12 13 12 11 10 9 9 9 9 8 7 6 5 4 2 2 2 1 1 1 0 1 1 1 1 2 2 2 2 1 1 1 2 1 1
4 5 6 5 5 1 4 2 6 7 7 10 11 11 12 12 11 11 11 10 10 10 9 8 7 6 5 5 4 4 3 2 2 1 1 2 2 2 2 2 2 2 2 2 2 2 2 2 1
5 2 2 5 5 2 1 3 6 3 7 10 12 13 13 13 13 13 12 12 11 10 9 8 7 6 5 5 5 4 3 2 1 1 2 2 1 1 2 2 2 2 2 2 2 1 2 2 2
4 4 6 6 5 1 3 3 5 5 10 10 11 11 12 12 13 12 11 10 8 8 8 8 7 6 6 6 5 5 4 3 2 2 2 1 1 1 2 2 2 2 2 2 2 2 2 2 1
4 7 4 5 4 4 3 2 7 6 7 9 12 11 10 10 11 11 11 10 9 9 9 8 8 7 6 6 5 5 5 4 4 3 2 2 1 1 2 1 1 1 1 2 2 2 1 1 1
4 9 8 5 4 3 3 2 7 5 4 5 7 8 7 8 9 11 12 11 11 11 10 9 9 8 7 7 6 5 4 3 3 3 2 2 2 2 2 2 2 1 2 2 2 1 1 1 1
5 4 8 8 3 1 3 4 6 2 3 4 4 5 7 8 9 10 10 10 10 10 10 10 10 8 7 7 6 5 4 4 3 3 2 2 2 1 1 2 2 2 2 2 2 1 1 1 0
8 8 6 7 6 2 3 3 4 2 2 3 5 5 5 5 6 7 8 9 9 9 8 8 8 8 7 7 6 5 4 4 3 3 2 2 1 0 1 1 2 2 2 2 2 1 1 1 0
4 4 6 5 6 7 2 6 5 5 5 6 5 6 7 6 6 6 6 7 7 6 6 7 7 6 6 6 6 5 4 4 3 3 2 2 1 1 1 1 2 2 2 2 2 1 2 2 2
6 7 8 7 4 5 5 7 4 5 5 8 6 5 5 5 5 5 5 5 5 5 6 6 6 6 6 6 6 5 5 4 4 3 2 2 2 1 1 2 2 2 2 2 2 2 2 2 2
Wind_Direction
216 186 151 93 55 60 73 77 91 84 66 62 74 79 76 63 89 117 144 129 124 118 110 107 106 105 103 101 101 100 100 100 101 102 105 108 110 113 114 116 116 116 116 115 114 113 113 113 115
196 162 93 60 77 80 73 89 85 92 116 106 83 80 75 71 85 111 126 129 124 119 113 113 111 109 107 106 104 103 102 102 103 104 107 112 113 114 115 116 118 118 118 117 116 115 114 113 114
183 151 85 69 82 111 109 107 105 102 104 94 88 67 68 93 106 121 138 133 120 115 115 120 115 113 112 111 107 106 105 103 106 106 108 114 115 116 117 118 120 121 120 119 118 117 115 115 114
116 63 56 78 95 108 122 126 116 103 82 77 92 76 68 92 107 126 133 126 119 117 118 125 120 117 116 115 112 110 109 107 108 108 110 115 118 121 122 122 123 123 123 122 122 121 121 120 119
75 72 65 78 94 101 109 113 108 101 88 90 93 96 80 78 111 123 128 127 124 122 121 126 124 123 121 119 116 114 114 114 114 115 115 118 122 125 126 128 128 128 127 126 124 123 124 122 119
65 74 81 91 98 102 102 107 101 98 106 103 100 100 90 115 121 127 129 127 128 129 125 125 128 128 127 124 121 119 118 118 118 119 120 124 129 132 133 134 133 131 129 131 130 128 128 126 125
111 100 112 117 108 110 118 114 108 117 116 112 114 98 110 124 127 127 127 126 127 127 125 121 131 133 132 129 127 126 124 124 124 125 126 127 131 137 141 141 138 135 135 135 135 134 131 131 129
135 101 96 112 114 116 124 112 116 117 111 120 115 116 139 143 127 122 123 122 124 126 128 126 126 128 131 133 137 136 134 134 135 134 133 133 134 137 142 141 141 141 140 143 145 143 143 145 142
95 84 114 135 125 126 121 111 107 100 113 114 92 114 136 131 124 119 119 119 129 133 140 140 135 135 139 142 145 143 143 143 143 143 144 139 125 124 135 146 150 151 152 156 158 159 161 162 147
99 116 153 146 135 132 124 119 121 108 102 100 101 112 127 126 126 127 134 139 144 152 161 158 156 158 161 156 136 139 144 137 136 147 152 145 145 153 160 158 161 162 165 170 175 183 178 163 105
117 136 138 127 130 126 122 116 107 120 122 137 138 139 138 132 131 135 140 146 151 153 158 163 166 167 169 153 149 161 154 147 155 169 175 160 150 151 156 140 152 169 178 176 187 188 167 158 142
105 130 132 132 130 123 123 114 104 116 138 142 139 140 139 144 148 150 150 155 150 140 145 156 157 156 161 157 163 168 169 167 170 181 175 162 156 158 162 164 175 176 171 191 218 222 192 172 173
97 109 114 121 116 114 112 109 109 117 131 136 136 136 143 152 155 154 152 153 149 142 144 152 146 140 143 147 163 161 168 169 175 168 169 162 155 159 158 164 173 179 181 190 202 202 177 178 180
119 105 104 113 108 112 112 109 104 132 138 139 141 144 148 153 154 150 151 156 155 154 156 151 141 140 135 138 146 152 161 163 155 160 168 156 151 151 143 145 156 180 190 190 187 186 179 182 162
99 93 89 110 109 121 107 93 126 147 146 145 150 154 152 156 157 159 164 165 165 164 162 157 152 142 136 136 136 140 153 149 151 167 165 155 154 154 151 153 168 197 197 184 163 162 153 160 156
66 79 102 170 128 138 107 132 156 154 149 153 158 161 160 165 167 167 164 164 166 163 164 168 158 143 143 139 131 127 137 137 150 156 160 166 163 159 151 160 186 202 183 153 160 158 130 127 163
42 115 151 184 165 133 112 149 166 162 159 163 164 165 167 169 174 171 168 168 169 166 165 165 160 154 153 149 140 129 122 129 153 154 163 180 178 170 162 175 193 178 149 156 187 144 145 176 214
206 161 172 182 184 130 120 145 160 171 168 169 169 167 172 179 185 180 173 172 168 166 163 164 164 159 154 141 116 87 79 109 149 169 184 190 191 180 167 183 196 160 142 164 165 158 169 187 209
186 162 173 191 181 141 150 159 175 177 176 175 174 173 183 186 184 176 174 172 165 163 162 162 163 165 151 142 142 141 170 176 110 197 182 178 189 192 181 191 186 163 165 193 181 160 160 222 138
194 192 206 176 161 140 163 180 185 181 186 181 179 179 187 183 174 176 176 176 172 171 169 164 166 167 164 163 161 156 151 159 167 144 116 164 182 190 178 172 192 187 164 160 153 140 140 210 143
241 199 200 179 114 72 113 308 201 196 193 187 186 185 185 183 180 180 177 179 175 176 176 174 172 170 170 161 137 119 86 50 41 0 300 247 205 194 183 182 186 180 162 180 191 168 159 197 252
243 234 186 158 120 176 134 200 247 202 201 198 193 188 193 187 183 183 180 181 183 185 179 172 171 171 173 164 153 151 152 169 201 194 209 234 220 206 201 201 191 184 173 179 196 170 164 161 213
214 228 156 149 138 97 58 126 271 203 207 208 199 194 195 189 186 187 186 184 184 181 176 173 171 174 173 167 164 160 167 182 187 178 197 227 243 236 219 200 197 193 189 188 181 161 162 162 180
166 73 46 49 75 84 237 166 259 214 208 201 195 195 197 190 187 186 183 176 175 173 173 172 170 178 177 172 168 169 176 179 170 183 196 227 253 272 258 217 195 193 192 191 189 178 169 175 179
104 90 48 17 26 248 259 173 250 233 208 191 184 188 189 180 177 179 177 175 175 174 176 175 174 181 181 176 178 180 184 181 182 189 192 202 227 255 259 226 199 195 190 178 161 151 154 156 170
166 135 150 167 192 265 336 235 258 256 200 171 168 172 169 171 175 179 181 179 179 180 179 176 180 184 182 182 187 186 186 182 185 190 184 195 217 236 239 199 188 179 160 144 130 129 137 118 169
142 153 159 131 142 120 281 278 298 17 89 130 133 132 156 171 177 177 176 176 178 181 183 182 184 185 185 185 183 185 188 183 183 182 185 193 210 221 213 185 178 169 140 128 128 109 110 99 120
151 148 103 114 138 186 280 259 238 238 159 132 131 140 158 155 158 160 166 175 179 182 181 176 180 184 183 184 186 189 189 185 176 164 173 182 192 200 136 148 150 136 119 118 115 111 100 98 43
144 118 113 115 143 149 198 266 230 206 165 141 151 153 158 151 151 162 165 170 170 165 168 170 172 173 176 183 189 185 176 173 170 173 183 182 168 156 142 138 132 131 122 124 117 113 106 92 54
162 159 141 142 180 154 154 259 261 179 159 138 135 134 133 133 137 152 153 144 148 154 160 166 168 170 177 180 179 176 171 166 169 169 171 153 138 136 135 137 127 129 126 125 125 132 107 94 76